TimeMST,TemperatureF,Dew PointF,Humidity,Sea Level PressureIn,VisibilityMPH,Wind Direction,Wind SpeedMPH,Gust SpeedMPH,PrecipitationIn,Events,Conditions,WindDirDegrees,DateUTC
12:51 AM,70.0,21.0,16,29.97,10.0,SW,4.6,-,N/A,,Clear,220,2013-10-05 07:51:00
1:51 AM,69.1,21.0,16,29.99,10.0,Calm,Calm,-,N/A,,Clear,0,2013-10-05 08:51:00
2:51 AM,71.1,19.0,14,30.00,10.0,Variable,3.5,-,N/A,,Clear,0,2013-10-05 09:51:00
3:51 AM,71.1,12.9,11,30.01,10.0,NNE,5.8,-,N/A,,Clear,20,2013-10-05 10:51:00
4:51 AM,71.1,12.9,11,30.02,10.0,NE,12.7,-,N/A,,Clear,50,2013-10-05 11:51:00
5:51 AM,69.1,14.0,12,30.04,10.0,ENE,11.5,-,N/A,,Clear,60,2013-10-05 12:51:00
6:51 AM,66.0,17.1,15,30.07,10.0,East,5.8,-,N/A,,Clear,90,2013-10-05 13:51:00
7:51 AM,68.0,21.0,17,30.10,10.0,SW,4.6,-,N/A,,Clear,230,2013-10-05 14:51:00
8:51 AM,71.1,17.1,13,30.12,10.0,West,4.6,-,N/A,,Clear,270,2013-10-05 15:51:00
9:51 AM,73.9,15.1,11,30.11,10.0,Variable,4.6,-,N/A,,Clear,0,2013-10-05 16:51:00
10:51 AM,78.1,10.9,8,30.10,10.0,NNE,10.4,-,N/A,,Clear,20,2013-10-05 17:51:00
11:51 AM,79.0,10.9,8,30.09,10.0,Variable,6.9,-,N/A,,Clear,0,2013-10-05 18:51:00
12:51 PM,82.0,10.9,7,30.05,10.0,North,11.5,-,N/A,,Clear,350,2013-10-05 19:51:00
1:51 PM,82.9,8.1,6,30.02,10.0,NNW,6.9,-,N/A,,Clear,340,2013-10-05 20:51:00
2:51 PM,84.9,9.0,6,30.01,10.0,NW,13.8,-,N/A,,Clear,320,2013-10-05 21:51:00
3:51 PM,84.9,9.0,6,29.99,10.0,North,4.6,-,N/A,,Clear,10,2013-10-05 22:51:00
4:51 PM,86.0,10.9,6,29.97,10.0,WNW,11.5,-,N/A,,Clear,290,2013-10-05 23:51:00
5:51 PM,84.9,12.9,7,29.97,10.0,West,9.2,-,N/A,,Clear,280,2013-10-06 00:51:00
6:51 PM,82.0,17.1,9,29.99,10.0,West,10.4,-,N/A,,Clear,260,2013-10-06 01:51:00
7:51 PM,79.0,18.0,10,30.00,10.0,WSW,6.9,-,N/A,,Clear,250,2013-10-06 02:51:00
8:51 PM,77.0,19.9,12,30.02,10.0,East,6.9,-,N/A,,Clear,80,2013-10-06 03:51:00
9:51 PM,78.1,21.0,12,30.03,10.0,ENE,11.5,-,N/A,,Clear,70,2013-10-06 04:51:00
10:51 PM,75.0,21.9,14,30.04,10.0,East,3.5,-,N/A,,Clear,100,2013-10-06 05:51:00
11:51 PM,75.9,21.9,13,30.04,10.0,WNW,3.5,-,N/A,,Clear,300,2013-10-06 06:51:00